Regional Weather Roundup
Issued by NWS

Home | Current Version | Previous Version | Graphics & Text | Print | Product List | Glossary On
Versions: 1 2 3 4 5 6 7 8 9 10 11 12 13 14 15 16 17 18 19 20 21 22 23 24 25 26 27 28 29 30 31 32 33 34 35 36 37 38 39 40 41 42 43 44 45 46 47 48 49 50
000
ASUS43 KDTX 162010
RWRMI
MICHIGAN HOURLY REGIONAL WEATHER ROUNDUP
NATIONAL WEATHER SERVICE DETROIT/PONTIAC MI
400 PM EDT WED APR 16 2014

NOTE: "FAIR" INDICATES FEW OR NO CLOUDS BELOW 12,000 FEET WITH NO
SIGNIFICANT WEATHER AND/OR OBSTRUCTION TO VISIBILITY.

MIZ047>049-052>055-059>063-066>070-074>076-081>083-162100-
SOUTHEAST LOWER MICHIGAN

CITY           SKY/WX    TMP DP  RH WIND       PRES   REMARKS
ADRIAN         MOSUNNY   43  19  38 S12G20    30.38F
ALMA           PTSUNNY   43  19  38 SE8G17    30.34S
ANN ARBOR      MOSUNNY   41  20  43 S10G20    30.38F
BAD AXE        PTSUNNY   38  19  44 S13       30.40F WCI  30
CARO           PTSUNNY   44  16  33 SE8G20    30.37F
DETROIT CITY   PTSUNNY   40  20  44 SE12G21   30.42F WCI  33
DETROIT        CLOUDY    39  22  50 SE10G18   30.42F WCI  32
FLINT          MOSUNNY   44  17  33 S9        30.37F
GROSSE ILE     PTSUNNY   37  21  52 SE9       30.41F WCI  31
HILLSDALE      SUNNY     44  18  35 S13G18    30.33F
HOWELL         MOSUNNY   43  16  33 SE14      30.35F

CITY           SKY/WX    TMP DP  RH WIND       PRES   REMARKS
JACKSON        MOSUNNY   43  17  35 SE13      30.33F
LAMBERTVILLE   MOSUNNY   43  23  45 SE10G18   30.39F
LANSING        SUNNY     45  16  31 SE16G22   30.33F
LAPEER         FAIR      41  15  35 SE9       30.37F
MASON          MOSUNNY   43  20  39 SE13G21   30.34F
MONROE         MOSUNNY   39  19  45 E12G17    30.39F WCI  32
MT. CLEMENS    MOSUNNY   39  22  51 S14       30.41F WCI  31
PONTIAC        MOSUNNY   40  17  39 S13G20    30.36F WCI  32
PORT HOPE        N/A     35  23  61 SE18      30.40F WCI  24
PORT HURON     MOSUNNY   39  18  41 S8        30.42F WCI  34
TRI CITIES     PTSUNNY   44  19  36 SE16      30.36F
TROY           MOSUNNY   40  21  46 S12G18    30.41S WCI  33
SAGINAW HB     PTSUNNY   43  18  36 S9        30.36F
YPSILANTI      MOSUNNY   43  20  39 SE10      30.40F
$$
MIZ043>046-050>051-056>058-064>065-071>073-077>080-162100-
SOUTHWEST LOWER MICHIGAN

CITY           SKY/WX    TMP DP  RH WIND       PRES   REMARKS
BATTLE CREEK   SUNNY     44  18  35 SE16G25   30.31F
BENTON HARBOR  MOSUNNY   48  20  32 S16G26    30.26F
BIG RAPIDS     PTSUNNY   41  20  42 S14G20    30.30S
COLDWATER      SUNNY     44  19  35 S14G22    30.32F
FREMONT        FAIR      45  17  32 S7G18     30.28F
HOLLAND        MOSUNNY   49  21  33 SE16      30.28F
GRAND RAPIDS   CLOUDY    47  21  35 S15G26    30.30S
IONIA          FAIR      45  19  35 S13G23    30.31F
KALAMAZOO      SUNNY     47  17  30 SE13G24   30.30F
LUDINGTON      CLOUDY    40  23  49 E10G16    30.28F WCI  34
MARSHALL       SUNNY     44  18  35 SE14      30.32F
MOUNT PLEASANT PTSUNNY   42  21  42 SE10G17   30.33F
MUSKEGON       PTSUNNY   48  18  30 SE18      30.28F
SOUTH HAVEN    MOSUNNY   47  17  30 S17G24    30.27F
$$
MIZ016>042-162100-
NORTHERN LOWER MICHIGAN

CITY           SKY/WX    TMP DP  RH WIND       PRES   REMARKS
ALPENA         SUNNY     37  25  61 E17       30.37F WCI  27
BEAVER ISLAND  CLOUDY    36  20  53 N3        30.34F
BELLAIRE       CLOUDY    42  13  31 S10       30.32S
CADILLAC       CLOUDY    38  22  51 S10       30.28S WCI  31
CHARLEVOIX     CLOUDY    36  20  51 N9        30.37S WCI  29
FRANKFORT      SNOW      32  30  92 CALM      30.33S VSB 1/2
GAYLORD        CLOUDY    38  14  37 S10       30.30S WCI  31
GRAYLING       PTSUNNY   39  13  34 S8        30.31F WCI  33
HARBOR SPRINGS CLOUDY    41  15  33 CALM      30.33S
HOUGHTON LAKE  CLOUDY    41  16  36 S12       30.31F
MANISTEE       CLOUDY    41  18  38 S9        30.30F
OSCODA         MOSUNNY   40  13  33 S12G22    30.39F WCI  32
PELLSTON       PTSUNNY   40  16  37 N6        30.35S
ROGERS CITY    PTSUNNY   35  26  69 E8        30.37S WCI  29
TRAVERSE CITY  CLOUDY    41  19  41 VRB7      30.31S
$$
MIZ007>008-015-162100-
EASTERN UPPER MICHIGAN

CITY           SKY/WX    TMP DP  RH WIND       PRES   REMARKS
KINROSS        CLOUDY    34  18  51 SE8       30.36S WCI  27
MACKINAC ISLAN PTSUNNY   31  21  66 E9G16     30.36F WCI  23
NEWBERRY       CLOUDY    32  20  62 S8        30.34F WCI  24
S. S. MARIE    CLOUDY    34  14  43 SW8       30.36F WCI  27
MUNISING         N/A     33  24  69 S10       30.32S WCI  25
$$
MIZ004>006-011>014-085-162100-
CENTRAL UPPER MICHIGAN

CITY           SKY/WX    TMP DP  RH WIND       PRES   REMARKS
MANISTIQUE     CLOUDY    32  27  81 SE8       30.33F WCI  25
ESCANABA       CLOUDY    30  27  86 SE8       30.31S WCI  23
MENOMINEE      CLOUDY    32  28  86 E10       30.26F WCI  24
SAWYER-GWINN   LGT SNOW  28  25  86 S9        30.26F VSB 1   WCI  20
$$
MIZ001>003-009>011-084-162100-
WESTERN UPPER MICHIGAN

CITY           SKY/WX    TMP DP  RH WIND       PRES   REMARKS
IRON MOUNTAIN  SNOW      29  26  89 E8        30.21F VSB 1/4 WCI  21
HOUGHTON       LGT SNOW  28  20  71 E7        30.25S WCI  21
COPPER HARBOR    N/A     32  17  54 SE7       30.29S WCI  26
IRONWOOD       CLOUDY    27  23  86 E16       30.09F VSB 1/2 WCI  14
$$

ABBREVIATIONS USED IN REMARKS
   TC - TEMPERATURE IN CELSIUS
  WCI - WIND CHILL INDEX
   HX - HEAT INDEX
  VSB - VISIBILITY




USA.gov is the U.S. government's official web portal to all federal, state and local government web resources and services.